Regional Weather Roundup
Issued by NWS

Home | Current Version | Previous Version | Text Only | Print | Product List | Glossary On
Versions: 1 2 3 4 5 6 7 8 9 10 11 12 13 14 15 16 17 18 19 20 21 22 23 24 25 26 27 28 29 30 31 32 33 34 35 36 37 38 39 40 41 42 43 44 45 46 47 48 49 50
000
ASUS43 KMPX 271601
RWRMN
WEATHER ROUNDUP FOR MINNESOTA
NATIONAL WEATHER SERVICE TWIN CITIES/CHANHASSEN MN
1100 AM CDT SAT AUG 27 2016


NOTE: "FAIR" INDICATES FEW OR NO CLOUDS BELOW 12,000 FEET WITH NO
SIGNIFICANT WEATHER AND/OR OBSTRUCTIONS TO VISIBILITY. N/A MEANS
CURRENT SKY AND/OR WEATHER CONDITIONS ARE NOT AVAILABLE.

MNZ060>063-068>070-271700-
   Twin Cities Metro

CITY           SKY/WX    TMP DP  RH WIND       PRES   REMARKS
TWIN CITIES    CLOUDY    64  59  83 SE5       30.06F HAZE
ST PAUL        LGT RAIN  64  61  90 CALM      30.07F FOG
CRYSTAL        RAIN      63  59  87 CALM      30.05F FOG
BLAINE         RAIN      64  63  94 E5        30.06F
LAKEVILLE      LGT RAIN  63  63 100 NE3       30.05F
EDEN PRAIRIE   LGT RAIN  65  61  87 E3        30.04F
LAKEVILLE      LGT RAIN  63  63 100 NE3       30.05F
SOUTH ST PAUL  LGT RAIN  64  61  93 CALM      30.06F
LAKE ELMO      DRIZZLE   63  61  94 CALM      30.08S
$$
MNZ001>005-007-008-013>017-022>024-027-028-271700-
   Northwest Minnesota

CITY           SKY/WX    TMP DP  RH WIND       PRES   REMARKS
BEMIDJI        CLOUDY    63  56  77 S7        30.03R
HALLOCK        CLOUDY    61  57  88 S9        29.94F
ROSEAU         RAIN      59  54  82 S21G26    29.97F
WARROAD        RAIN      59  55  88 S8        30.00F
THIEF RVR FALL RAIN      58  57  97 SE12      30.00F
CROOKSTON      RAIN      57  57 100 S8        29.99S
FOSSTON        CLOUDY    63  57  82 S8        30.01S
DETROIT LAKES  CLOUDY    66  57  72 S14       30.01F
MOORHEAD       CLOUDY    68  61  77 S12       29.97S
PARK RAPIDS    CLOUDY    65  56  72 S7        30.04R
MAHNOMEN       CLOUDY    65  58  79 S9        30.00S
$$
MNZ006-009>011-018-025>026-271700-
   North Central Minnesota

CITY           SKY/WX    TMP DP  RH WIND       PRES   REMARKS
BAUDETTE       LGT RAIN  64  58  80 S8        30.00S
FLAG ISLAND    CLOUDY    64  59  82 S7        29.97S HAZE
INTL FALLS     CLOUDY    68  55  63 VRB6      30.03F
WASKISH        CLOUDY    64  57  77 S7        30.02R
BIG FORK       CLOUDY    66  55  68 S8        30.05S
LONGVILLE      CLOUDY    64  59  82 SE7       30.04S
GRAND RAPIDS   CLOUDY    64  57  78 S7        30.07F
ORR            CLOUDY    66  52  59 S12G18    30.04S
COOK           MOSUNNY   64  55  72 S6        30.07S
WALKER         CLOUDY    63  56  79 SE6       30.03S
$$
MNZ012-019>021-037-271700-
   Northeast Minnesota

CITY           SKY/WX    TMP DP  RH WIND       PRES   REMARKS
DULUTH         LGT RAIN  62  58  86 SE7       30.09F
ELY            CLOUDY    64  54  68 S6        30.08F
HIBBING        PTSUNNY   63  57  81 SE7       30.07F
EVELETH        MOSUNNY   64  54  69 S10       30.08F
DULUTH HARBOR  LGT RAIN  63  61  94 CALM      30.08F
TWO HARBORS    HVY RAIN  64  61  88 E3        30.07F
SILVER BAY     CLOUDY    64  59  82 SE3       30.08F
G MARAIS ARPRT CLOUDY    63  52  67 SE5       30.12F
$$
MNZ029>031-032-039>041-046>048-054>057-064-271700-
   West Central Minnesota

CITY           SKY/WX    TMP DP  RH WIND       PRES   REMARKS
FERGUS FALLS   CLOUDY    66  59  77 S14       30.01F
WHEATON        MOSUNNY   72  63  73 S8        30.01F
MORRIS         MOSUNNY   66  57  72 SE13G18   30.01S
ALEXANDRIA     CLOUDY    66  55  67 S12       30.05R
ELBOW LAKE     CLOUDY    65  58  80 S9        30.03S
WADENA         PTSUNNY   63  57  82 SW5       30.03S
GLENWOOD       SUNNY     66  57  72 S10       30.04R
APPLETON       CLOUDY    66  57  72 SE9       30.02S
BENSON         PTSUNNY   68  55  64 SW10      30.03F
ORTONVILLE     CLOUDY    66  57  72 S9        30.01F
MADISON        MOSUNNY   66  57  72 S10       30.02S
WILLMAR        CLOUDY    64  59  82 E10       30.04S
$$
MNZ033>034-036-042>043-049>051-058-059-271700-
   Central Minnesota

CITY           SKY/WX    TMP DP  RH WIND       PRES   REMARKS
ST CLOUD       LGT RAIN  63  62  97 S10       30.04F
SAUK CENTRE    FAIR      65  54  67 SE9       30.04S
PAYNESVILLE    CLOUDY    63  62  97 SE12      30.03F
AITKIN         MOSUNNY   70  57  64 S10       30.03F
PINE RIVER     PTSUNNY   66  57  72 S8        30.06F
BRAINERD       CLOUDY    66  59  78 S12       30.04F
STAPLES        CLOUDY    66  57  72 S10       30.03S
LONG PRAIRIE   PTSUNNY   64  57  77 E12G17    30.05R
LITTLE FALLS   MOSUNNY   63  57  82 SE10      30.04F
LITCHFIELD     CLOUDY    63  59  88 SE13      30.03F
BUFFALO        LGT RAIN  62  57  84 E6        30.05F
MAPLE LAKE     CLOUDY    64  62  94 SE3       30.05F
HUTCHINSON     DRIZZLE   62  61  96 E9        30.03F
$$
MNZ037-044-045-052-053-271700-
   East Central Minnesota

CITY           SKY/WX    TMP DP  RH WIND       PRES   REMARKS
PRINCETON      LGT RAIN  64  63  94 SE6       30.06F
MORA           LGT RAIN  59  55  88 SE5       30.07F
CAMBRIDGE      LGT RAIN  64  57  77 CALM      30.05F
RUSH CITY      LGT RAIN  62  59  92 SE3       30.06F
MOOSE LAKE     PTSUNNY   61  55  82 CALM      30.05F
HINCKLEY       LGT RAIN  61  59  94 SE5       30.07F
CLOQUET        DRIZZLE   61  55  82 SE5       30.08F
MCGREGOR       PTSUNNY   66  57  72 SE12      30.06F
$$
MNZ071>073-080-081-089-090-097-098-271700-
   Southwest Minnesota

CITY           SKY/WX    TMP DP  RH WIND       PRES   REMARKS
MONTEVIDEO     CLOUDY    64  59  82 S3        30.05S
GRANITE FALLS  CLOUDY    65  60  85 E7        30.04S
CANBY          CLOUDY    63  59  87 E8        30.04S
MARSHALL       CLOUDY    61  60  97 SE8       30.03S
REDWOOD FALLS  CLOUDY    63  58  83 E10       30.01F
OLIVIA         CLOUDY    61  57  88 SE6       30.01F
PIPESTONE      CLOUDY    63  61  94 SE3       30.03S
WINDOM         CLOUDY    63  61  94 SE5       30.03S FOG
WORTHINGTON    CLOUDY    63  62  97 SW5       30.03S FOG
JACKSON          N/A     63  61  94 S6        30.03F FOG
TRACY          CLOUDY    62  61  96 E6        30.03F
SLAYTON        CLOUDY    59  59 100 E3        30.04S
$$
MNZ065>067-074>077-082>085-091>093-271700-
   South Central Minnesota

CITY           SKY/WX    TMP DP  RH WIND       PRES   REMARKS
MANKATO        CLOUDY    63  57  82 E8        30.03F
NEW ULM          N/A     61  61 100 E8        30.02F
ST JAMES       CLOUDY    57  55  94 E8        30.03F
FAIRMONT       CLOUDY    62  61  96 S5        30.03F
GLENCOE        CLOUDY    62  62 100 E8        30.03F
FARIBAULT      LGT RAIN  61  61 100 CALM      30.05F
OWATONNA       DRIZZLE   63  61  94 E3        30.04F
WASECA         DRIZZLE   61  61 100 E6        30.05F
ALBERT LEA     CLOUDY    63  63 100 SE6       30.03F FOG
$$
MNZ078>079-086>088-094>096-271700-
   Southeast Minnesota

CITY           SKY/WX    TMP DP  RH WIND       PRES   REMARKS
ROCHESTER      CLOUDY    64  62  93 SE10      30.04F
RED WING       DRIZZLE   64  61  88 E7        30.04F
STANTON        CLOUDY    63  61  94 CALM      30.04F
DODGE CENTER   HVY RAIN  61  61 100 E3        30.05S
WINONA         CLOUDY    64  59  82 SE7       30.05F
AUSTIN         RAIN      63  61  94 CALM      30.04S
PRESTON        CLOUDY    64  60  88 SE7       30.05F
$$
ABBREVIATIONS USED IN REMARKS
   TC - TEMPERATURES IN CELSIUS
  WCI - WIND CHILL INDEX
   HX - HEAT INDEX
  VSB - VISIBILITY
$$




USA.gov is the U.S. government's official web portal to all federal, state and local government web resources and services.